EHI
40 45 47 44 42 43 45 43 41 41 45 48 49 47 43 38 34 32 32 30 26 20 14 13 16 17 14 11 9 10 11 12 10 7 5 4 4 7 11 11 9 7 7
43 46 47 44 43 43 43 43 42 42 45 48 48 45 41 36 32 31 31 28 24 19 16 15 16 16 14 12 12 11 11 10 9 8 5 3 3 5 8 10 8 7 8
45 47 47 44 44 44 43 42 41 42 43 44 42 40 36 31 28 28 29 25 21 19 18 16 14 13 13 13 12 11 9 9 9 9 6 3 2 2 5 7 7 7 8
43 44 44 42 43 43 42 41 40 39 40 38 37 35 32 27 24 25 25 22 19 19 19 16 13 11 11 11 10 8 8 8 8 9 8 6 3 3 3 5 6 7 7
38 38 37 37 39 40 40 39 38 36 36 35 34 33 30 26 22 21 22 20 18 17 17 16 13 10 9 9 8 7 6 6 6 6 6 5 5 4 3 2 3 5 6
34 33 32 34 35 35 36 36 36 34 33 32 31 30 28 24 19 19 19 17 15 14 12 12 10 8 7 8 7 6 5 5 4 4 4 4 4 4 2 1 1 2 3
32 31 31 34 34 33 34 35 34 32 30 28 27 26 23 20 16 14 14 12 10 9 8 7 6 5 5 6 6 4 4 4 3 3 3 3 3 3 2 0 0 1 2
30 30 31 33 33 32 33 32 30 27 24 21 21 21 20 17 13 10 9 7 6 5 4 4 3 2 2 4 4 4 3 3 3 3 3 3 3 2 1 0 0 0 1
28 28 29 31 31 30 29 28 26 21 17 15 16 16 16 14 11 8 6 5 5 3 2 2 2 1 2 4 5 4 3 3 3 2 2 2 1 1 0 0 0 0 0
26 25 25 28 28 26 25 24 21 16 12 11 12 11 11 10 9 9 7 6 6 5 3 3 2 2 3 4 4 4 3 2 1 1 1 1 0 0 0 0 0 0 0
24 24 24 26 25 22 20 19 17 13 9 8 9 9 8 7 8 9 7 6 6 5 4 3 3 3 2 2 2 1 1 1 0 0 0 0 0 0 0 0 0 0 0
23 23 24 24 21 17 16 15 13 10 7 6 7 8 7 7 7 7 7 6 6 4 3 3 3 2 1 1 0 0 0 0 0 0 0 0 0 0 0 0 0 0 0
20 21 22 21 18 16 14 13 11 8 5 5 6 6 6 6 6 6 6 6 6 4 3 3 2 1 0 0 0 0 0 0 0 0 0 0 0 0 0 0 0 0 0
15 17 18 18 16 14 12 11 9 7 5 4 4 4 5 6 6 6 6 6 5 3 3 2 1 0 0 0 0 0 0 0 0 0 0 0 0 0 0 0 0 0 0
11 12 14 14 13 10 9 8 7 5 4 3 3 3 4 4 5 6 5 4 3 2 2 1 0 0 0 0 0 0 0 0 0 0 0 0 0 0 0 0 0 0 0
8 9 11 11 10 9 8 7 6 4 3 3 3 3 3 3 4 4 4 2 1 0 0 0 0 0 0 0 0 0 0 0 0 0 0 0 0 0 0 0 0 0 0
5 6 8 8 9 9 9 7 6 4 3 3 3 3 3 3 3 3 2 1 0 0 0 0 0 0 0 0 0 0 0 0 0 0 0 0 0 0 0 0 0 0 0
2 4 6 7 8 9 9 8 7 5 4 3 3 3 3 3 2 1 1 0 0 0 0 0 0 1 0 0 0 0 0 0 0 0 0 0 0 0 0 0 0 0 0
3 5 6 6 7 8 8 7 6 5 3 2 2 2 2 1 1 0 0 0 0 0 0 0 0 0 0 0 0 0 0 0 0 0 0 0 0 0 0 0 0 0 0
6 7 7 7 7 7 7 6 5 4 2 1 1 1 1 0 0 0 0 0 0 0 0 0 0 0 0 0 0 0 0 0 0 0 0 0 0 0 0 0 0 0 0
6 7 8 8 7 6 6 5 4 3 1 0 0 0 0 0 0 0 0 0 0 0 0 0 0 0 0 0 0 0 0 0 0 0 0 0 0 0 0 0 0 0 0
3 5 7 7 7 6 5 4 3 3 1 0 0 0 0 0 0 0 0 0 0 0 0 0 0 0 0 0 0 0 0 0 0 0 0 0 0 0 0 0 0 0 0
1 2 4 5 5 4 4 3 3 3 2 1 0 0 0 0 0 0 0 0 0 0 0 0 0 0 0 0 0 0 0 0 0 0 0 0 0 0 0 0 0 0 0
0 1 3 4 4 4 4 3 3 3 2 1 0 0 0 0 0 0 0 0 0 0 0 0 0 0 0 0 0 0 0 0 0 0 0 0 0 0 0 0 0 0 0
2 3 4 5 6 6 5 4 3 3 1 0 0 0 0 0 0 0 0 0 0 0 0 0 0 0 0 0 0 0 0 0 0 0 0 0 0 0 0 0 0 0 0
5 5 6 6 6 6 6 4 3 2 1 0 0 0 0 0 0 0 0 0 0 0 0 0 0 0 0 0 0 0 0 0 0 0 0 0 0 0 0 0 0 0 0
Wind_Speed
11 10 9 8 7 6 5 4 4 3 2 1 1 1 1 1 1 1 1 1 1 2 2 2 2 2 2 1 2 2 3 2 1 1 2 2 2 2 1 1 0 0 0
11 11 9 8 7 6 5 4 3 3 2 1 1 1 1 0 1 1 2 1 1 1 2 1 2 2 2 2 2 2 2 2 1 1 1 1 1 1 0 1 1 1 1
13 11 9 8 7 6 4 4 3 2 2 2 2 1 1 1 0 1 1 0 1 1 1 2 2 2 2 1 2 1 2 3 2 1 1 1 1 1 0 0 0 0 0
11 11 10 8 7 6 6 5 4 3 3 2 2 1 1 1 0 0 1 1 1 1 1 1 1 2 2 2 3 2 2 3 3 2 2 2 1 1 1 1 0 0 0
11 10 9 8 7 7 6 5 5 4 3 2 2 1 1 1 1 1 1 1 1 1 1 1 2 2 1 2 2 2 3 2 3 2 2 2 2 2 2 1 1 1 1
10 10 9 8 7 7 6 6 5 4 3 3 2 2 2 1 1 1 1 1 0 1 1 2 2 2 2 2 2 2 3 3 3 2 2 2 2 2 1 1 1 1 1
8 8 9 9 8 7 6 6 6 4 3 3 2 2 1 0 0 1 1 2 1 1 2 2 1 2 2 2 2 2 2 3 3 3 2 2 2 2 1 1 1 1 1
8 8 8 7 7 7 6 6 6 4 3 3 2 2 1 1 1 1 1 1 1 1 1 1 1 2 3 3 2 2 2 2 3 3 3 2 2 2 1 1 0 0 0
8 8 8 7 7 6 6 6 5 4 3 3 3 2 1 1 1 1 1 1 2 2 2 2 2 2 3 3 3 2 2 2 3 3 3 2 2 2 1 1 1 1 1
8 7 7 8 7 6 6 6 5 4 3 3 2 2 1 1 1 1 2 2 2 2 2 2 3 3 3 2 3 2 2 2 2 2 2 2 2 2 1 1 1 1 1
8 8 6 7 7 6 6 5 4 4 3 2 2 2 2 1 1 1 1 1 2 2 2 2 2 3 2 2 2 2 2 2 2 3 3 3 3 2 2 1 1 1 1
7 7 7 7 6 6 5 5 4 3 2 2 2 2 2 1 1 2 2 1 1 2 2 2 3 3 2 2 2 3 3 2 3 3 3 3 3 3 2 2 1 1 1
7 7 6 6 6 5 5 4 4 3 3 2 2 2 1 1 1 1 1 2 1 2 2 2 2 3 3 2 3 3 3 3 3 3 3 3 3 3 2 3 2 1 1
6 6 6 5 5 5 4 4 4 3 2 2 2 2 1 1 1 1 1 2 2 2 2 2 2 3 3 3 4 4 3 3 3 3 2 2 2 2 3 2 2 2 1
6 6 6 5 5 5 4 3 3 3 2 1 2 2 1 1 1 1 1 2 2 2 2 3 3 3 3 5 6 5 4 4 4 3 2 2 1 1 1 1 1 1 1
6 6 6 6 5 4 4 4 3 2 2 1 2 2 1 1 0 1 1 1 2 3 3 3 3 4 4 6 7 5 4 4 4 4 3 2 2 1 2 3 2 2 2
5 5 5 5 4 4 4 4 3 2 2 1 1 2 1 0 0 1 1 2 2 2 2 3 3 3 3 5 6 7 4 4 3 3 4 4 2 1 1 1 3 4 5
5 5 5 5 4 3 3 4 3 2 2 1 1 1 1 1 1 1 1 1 1 2 2 2 2 2 2 4 6 8 5 4 4 3 3 3 2 3 3 2 2 1 2
5 4 5 5 4 4 3 3 3 2 2 2 1 1 1 1 1 1 1 1 1 1 2 1 1 1 1 3 5 6 4 3 4 3 2 2 2 3 3 2 2 2 2
5 4 4 5 4 3 3 4 3 2 2 1 2 1 1 1 1 1 1 1 1 1 1 1 1 1 0 1 3 4 3 3 3 3 2 3 2 2 3 2 2 2 2
6 5 4 4 4 3 4 3 3 2 1 1 2 2 2 1 1 1 1 1 1 1 1 2 2 1 1 1 2 2 2 4 4 3 2 1 1 3 3 3 3 3 3
6 6 4 5 4 4 4 3 2 2 1 2 2 2 1 0 1 1 1 1 2 2 2 2 2 2 2 2 2 3 3 3 4 4 2 1 3 6 6 4 5 6 5
6 5 5 5 5 4 4 3 3 2 2 2 2 1 1 1 1 1 2 2 2 2 2 2 3 2 2 2 3 4 5 5 4 4 6 7 8 9 7 8 8 6 4
6 5 5 6 5 4 4 3 3 3 2 2 2 2 2 2 1 2 2 2 1 2 2 2 2 1 0 0 0 2 3 4 4 4 6 8 10 8 8 6 6 5 5
6 5 5 5 6 5 4 4 4 3 3 2 2 2 2 2 2 2 2 2 1 1 2 2 3 3 2 1 2 3 3 3 4 5 5 5 4 4 4 5 5 4 4
6 6 5 5 5 5 5 5 4 4 3 3 2 2 2 2 2 2 2 2 3 4 4 4 4 3 3 4 4 5 6 6 5 4 5 6 5 4 4 4 3 3 3
Wind_Direction
148 145 139 137 133 128 130 132 125 119 124 133 158 155 136 137 116 119 95 40 335 327 314 317 319 317 308 306 310 307 295 282 280 288 287 270 232 213 196 153 204 237 123
149 144 143 139 134 129 131 136 131 136 150 137 137 134 110 79 99 60 78 55 5 337 330 330 315 325 313 313 305 306 297 292 278 270 283 278 264 260 199 142 176 186 151
152 147 147 143 140 135 134 130 126 126 125 125 134 123 124 136 106 118 106 42 357 4 342 336 319 322 309 322 311 319 298 294 282 259 243 259 253 314 237 239 42 307 135
145 147 150 147 144 141 135 121 112 104 103 111 115 141 140 146 129 75 81 33 360 344 356 333 338 346 339 339 317 347 317 304 297 276 245 245 237 238 249 234 201 275 242
143 148 149 147 140 134 129 123 115 110 105 110 109 100 69 50 51 41 45 358 332 331 16 3 8 355 346 341 326 326 320 313 310 308 305 301 271 241 228 233 209 238 237
142 145 143 138 133 131 130 128 124 119 113 110 108 102 94 53 21 355 356 314 289 322 25 17 7 337 324 320 320 322 318 315 314 311 304 302 292 278 250 244 228 214 191
136 144 143 142 141 136 131 130 130 126 122 113 98 91 94 148 340 324 326 333 339 9 25 9 349 326 311 315 322 319 312 314 317 317 309 300 288 285 276 262 262 270 136
140 144 143 141 136 131 131 133 129 128 125 111 98 88 66 28 22 8 352 345 350 3 354 334 341 322 319 328 325 314 311 329 322 316 315 300 286 281 267 236 227 241 175
142 147 137 130 129 132 134 132 125 121 119 117 118 117 101 53 25 359 344 3 352 350 345 338 344 338 333 334 329 318 339 344 332 319 317 302 292 283 267 235 198 194 212
130 130 131 131 131 126 121 118 122 124 119 114 117 106 103 84 35 -0 14 15 7 357 328 332 332 325 325 330 327 323 339 339 329 313 321 319 318 321 302 258 253 234 211
134 130 130 133 135 134 136 134 133 128 125 115 96 76 70 51 25 36 23 13 1 327 314 320 314 313 326 338 327 315 322 327 331 332 337 336 339 326 311 297 269 266 231
126 130 132 134 142 142 142 140 134 124 116 107 100 88 70 53 35 34 20 350 328 313 323 319 319 318 334 339 334 334 341 342 346 344 345 343 346 341 334 325 313 295 235
127 132 138 143 144 143 147 136 128 121 117 111 106 92 72 45 32 14 353 323 319 321 322 326 330 338 340 353 353 353 349 344 336 339 341 341 349 335 334 330 322 301 282
137 138 139 135 142 147 146 134 125 120 130 126 115 106 82 56 34 15 360 341 339 325 335 336 345 352 355 9 6 358 346 338 333 339 343 340 343 332 322 319 327 329 317
148 149 146 140 147 142 133 124 120 124 118 122 122 117 96 65 40 6 339 344 337 341 353 354 358 359 11 21 10 349 348 342 333 333 330 317 329 325 293 315 334 336 325
153 150 149 146 140 137 136 130 129 129 131 151 146 125 117 92 44 346 7 2 348 355 354 355 1 9 22 22 17 360 341 333 325 324 316 288 245 228 220 238 252 247 244
146 148 148 145 144 142 143 145 144 143 167 164 136 131 128 94 28 351 21 8 353 351 343 353 12 26 32 17 3 358 328 317 313 314 311 314 352 14 352 256 242 243 234
146 145 146 144 146 142 142 150 150 163 179 161 142 139 131 88 36 34 33 15 353 345 334 339 3 11 26 4 349 342 320 306 297 289 298 311 353 13 357 322 315 283 250
135 137 144 147 152 151 153 155 151 156 164 150 145 128 108 93 57 45 21 4 345 318 307 322 360 10 5 346 344 339 315 310 314 315 347 355 47 31 9 326 310 307 296
124 130 136 135 140 142 147 152 150 158 163 148 139 120 113 99 62 43 16 349 314 291 288 312 312 317 320 323 336 340 313 319 322 325 2 33 35 26 355 313 302 296 299
129 132 135 134 133 135 142 154 156 159 152 145 130 105 108 127 121 87 347 299 286 289 283 261 263 262 240 221 288 322 319 327 325 325 328 31 16 333 315 302 284 269 290
139 138 137 132 130 137 147 151 148 140 143 134 116 108 109 200 122 123 268 267 264 261 252 252 253 237 218 221 230 259 279 303 318 317 327 338 302 305 298 282 264 276 288
143 142 144 141 139 147 152 154 152 157 154 130 121 132 177 239 203 225 253 250 250 257 255 243 251 244 210 197 223 248 271 280 284 300 305 299 289 292 282 263 260 265 258
151 155 152 152 151 159 160 162 169 165 152 145 152 182 212 217 224 248 255 251 261 284 303 303 306 306 179 74 292 275 272 277 278 291 292 278 273 273 271 270 255 238 239
155 156 155 162 161 164 171 181 171 159 153 162 178 210 230 225 236 245 278 283 301 269 276 319 332 339 349 341 325 321 324 332 342 323 298 283 277 273 264 255 245 234 230
158 161 166 172 169 174 181 179 172 169 167 185 202 224 236 228 234 231 233 247 238 229 230 239 257 285 265 262 281 295 295 299 312 311 292 293 289 285 287 287 276 249 239